East Brevoort - northern half: Past 24 Hour Conditions

 

Chesterfield Inlet Airport

05:00 AM CST 26 November 2014
This table is a summary of hourly weather conditions for the past 24 hours.
Date / Time
(CST)
Wind(knots) Conditions Visibility(km) Pressure(kPa) Air tempC) Relative humidity(%) Dew pointC) Wind Chill
26 November 2014
5:00 WNW 19 N/A N/A 101.4 -27 74 -30 -43
4:00 WNW 19 gust 24 N/A N/A 101.4 -27 74 -30 -43
3:00 WNW 21 N/A N/A 101.3 -27 74 -31 -44
2:00 WNW 11 N/A N/A 101.3 -28 74 -31 -40
1:00 WNW 15 N/A N/A 101.3 -28 73 -32 -43
0:00 WNW 18 N/A N/A 101.2 -27 73 -31 -43
25 November 2014
23:00 WNW 14 gust 20 N/A N/A 101.2 -28 74 -31 -42
22:00 NW 17 N/A N/A 101.1 -29 73 -32 -44
21:00 NW 17 gust 22 N/A N/A 101.1 -29 72 -32 -44
20:00 NW 18 gust 25 N/A N/A 101.1 -29 72 -33 -45
19:00 NW 19 N/A N/A 101.0 -29 72 -33 -46
18:00 WNW 18 N/A N/A 101.1 -29 72 -33 -46
17:00 WNW 21 Drifting Snow 16 101.0 -29 71 -33 -46
16:00 WNW 19 Drifting Snow 16 101.0 -29 71 -33 -46
15:00 WNW 20 Drifting Snow 16 101.0 -28 72 -32 -45
14:00 WNW 15 gust 24 Drifting Snow 16 100.9 -28 73 -32 -43
13:00 WNW 19 Mist 2 100.9 -28 73 -32 -44
12:00 NW 19 gust 25 Drifting Snow 13 100.9 -29 73 -32 -45
11:00 WNW 17 Drifting Snow 13 100.9 -29 73 -33 -45
10:00 WNW 19 Drifting Snow 13 100.8 -28 73 -32 -44
9:00 WNW 14 gust 21 Drifting Snow 16 100.8 -28 73 -32 -43
8:00 NW 17 Drifting Snow 16 100.8 -28 72 -31 -43
7:00 NW 19 Drifting Snow 13 100.8 -28 73 -31 -44
6:00 NW 15 N/A N/A 100.8 -28 74 -31 -43
5:00 NW 16 N/A N/A 100.8 -28 74 -32 -44
 
Map of Arctic - Eastern Arctic marine weather areas Baker Lake Airport Chesterfield Inlet Airport Coral Harbour Airport Gjoa Haven Airport Kugaaruk Airport Rankin Inlet Airport Shepherd Bay Airport Whale Cove Airport Arctic Bay Brevoort Island Qikiqtarjuaq Airport Cape Dorset Airport Cape Dyer Cape Hooper Clyde Airport Grise Fiord Airport Hall Beach Airport Igloolik Airport Iqaluit Airport Longstaff Bluff Pangnirtung Airport Pond Inlet Airport Repulse Bay Airport Resolute Airport Resolution Island Rowley Island Airport Taloyoak Airport Wager Bay Akulivik Airport Ivujivik Airport Puvirnituq Airport Kangiqsujuaq Airport Kangirsuk Airport Quaqtaq Airport Tasiujaq Airport Cape Kakkiviak Cape Kiglapait Nain Airport Saglek Cape Mercy Kimmirut Airport Aupaluk Airport Salluit Airport Kangiqsualujjuaq Airport Fort Ross
Legend: buoyBuoy land stationLand Station